| time (UTC) | temp F | wind direction | speed knots | gust knots | rain 1hr in | rain 24hr in | rain mn in | humidity % | barometer mb |
| 20260504210702 | 77 | 212 | 10.4 | 18.2 | 0.00 | 0.02 | 0.01 | 38 | 1004.3 |
| 20260504210602 | 78 | 216 | 10.4 | 18.2 | 0.00 | 0.02 | 0.01 | 37 | 1004.3 |
| 20260504210502 | 78 | 204 | 7.0 | 13.9 | 0.00 | 0.02 | 0.01 | 38 | 1004.4 |
| 20260504210403 | 78 | 203 | 4.3 | 11.3 | 0.00 | 0.02 | 0.01 | 38 | 1004.4 |
| 20260504210300 | 78 | 217 | 6.1 | 8.7 | 0.00 | 0.02 | 0.01 | 38 | 1004.4 |
| 20260504210203 | 78 | 210 | 7.0 | 12.2 | 0.00 | 0.02 | 0.01 | 38 | 1004.4 |
| 20260504210101 | 78 | 219 | 4.3 | 13.0 | 0.00 | 0.02 | 0.01 | 38 | 1004.5 |
| 20260504210001 | 77 | 217 | 5.2 | 7.0 | 0.00 | 0.02 | 0.01 | 38 | 1004.5 |
| 20260504205901 | 77 | 231 | 5.2 | 11.3 | 0.00 | 0.02 | 0.01 | 38 | 1004.5 |
| 20260504205802 | 77 | 211 | 7.0 | 14.8 | 0.00 | 0.02 | 0.01 | 38 | 1004.5 |
| 20260504205700 | 77 | 220 | 7.8 | 13.0 | 0.00 | 0.02 | 0.01 | 38 | 1004.6 |
| 20260504205601 | 77 | 215 | 5.2 | 14.8 | 0.00 | 0.02 | 0.01 | 39 | 1004.5 |
| 20260504205504 | 77 | 198 | 6.1 | 10.4 | 0.00 | 0.02 | 0.01 | 38 | 1004.6 |
| 20260504205400 | 77 | 223 | 7.0 | 12.2 | 0.00 | 0.02 | 0.01 | 40 | 1004.5 |
| 20260504205212 | 77 | 191 | 2.6 | 7.8 | 0.00 | 0.02 | 0.01 | 43 | 1004.6 |
| 20260504205202 | 77 | 191 | 4.3 | 8.7 | 0.00 | 0.02 | 0.01 | 42 | 1004.6 |
| 20260504205102 | 77 | 191 | 2.6 | 7.8 | 0.00 | 0.02 | 0.01 | 43 | 1004.6 |
| 20260504205002 | 77 | 227 | 2.6 | 6.1 | 0.00 | 0.02 | 0.01 | 44 | 1004.6 |
| 20260504204902 | 77 | 191 | 1.7 | 5.2 | 0.00 | 0.02 | 0.01 | 45 | 1004.6 |
| 20260504193701 | 75 | 255 | 0.0 | 1.7 | 0.00 | 0.02 | 0.01 | 46 | 1005.8 |
| 20260504193602 | 74 | 276 | 1.7 | 2.6 | 0.00 | 0.02 | 0.01 | 46 | 1005.9 |
| 20260504193502 | 74 | 248 | 2.6 | 7.8 | 0.00 | 0.02 | 0.01 | 45 | 1005.9 |
| 20260504193403 | 74 | 248 | 2.6 | 7.8 | 0.00 | 0.02 | 0.01 | 45 | 1005.9 |
| 20260504193302 | 74 | 236 | 4.3 | 8.7 | 0.00 | 0.02 | 0.01 | 46 | 1005.9 |
| 20260504193204 | 74 | 225 | 2.6 | 5.2 | 0.00 | 0.02 | 0.01 | 46 | 1006.0 |
| 20260504193102 | 74 | 225 | 2.6 | 5.2 | 0.00 | 0.02 | 0.01 | 46 | 1006.0 |
| 20260504173101 | 68 | 199 | 4.3 | 7.8 | 0.00 | 0.02 | 0.01 | 57 | 1006.3 |
| 20260504173001 | 68 | 169 | 2.6 | 5.2 | 0.00 | 0.02 | 0.01 | 57 | 1006.3 |
| 20260504172901 | 68 | 200 | 2.6 | 7.8 | 0.00 | 0.02 | 0.01 | 57 | 1006.4 |
| 20260504172803 | 68 | 186 | 2.6 | 4.3 | 0.00 | 0.02 | 0.01 | 57 | 1006.4 |
| 20260504172703 | 68 | 198 | 1.7 | 6.1 | 0.00 | 0.02 | 0.01 | 57 | 1006.4 |
| 20260504172601 | 68 | 218 | 2.6 | 4.3 | 0.00 | 0.02 | 0.01 | 57 | 1006.3 |
| 20260504172502 | 68 | 205 | 1.7 | 7.0 | 0.00 | 0.02 | 0.01 | 57 | 1006.2 |
| 20260504172401 | 69 | 95 | 0.9 | 0.9 | 0.00 | 0.02 | 0.01 | 56 | 1006.1 |